User: anonymous
Location: Unspecified
(0.0000°N, 0.0000°E)
Time: 11:03:54
(UTC+00:00)
Language:

SES 6 - Orbit

View from above orbital plane
View from above orbital plane
View from above satellite
View from above satellite

Ground track
Ground track

The orbit data is extracted from the following two-line orbital elements,

1 39172U 13026A   14239.20270471  .00000000  00000-0  10000-3 0  3073
2 39172 000.0211 290.9146 0001735 230.9424 205.8969 01.00263899  4426
Epoch (UTC): 27 August 2014 04:51:53
Eccentricity: 0.0001735
inclination: 0.0211°
perigee height: 35781 km
apogee height: 35796 km
right ascension of ascending node: 290.9146°
argument of perigee: 230.9424°
revolutions per day: 1.00263899
mean anomaly at epoch: 205.8969°
orbit number at epoch: 442

The dashed part of the orbit path shows where the satellite is in the earth's shadow,  

DLR